Time,TemperatureF,DewpointF,PressureIn,WindDirection,WindDirectionDegrees,WindSpeedMPH,WindSpeedGustMPH,Humidity,HourlyPrecipIn,Conditions,Clouds,dailyrainin,SolarRadiationWatts/m^2,SoftwareType,DateUTC
2013-07-21 00:00:00,79.9,72.1,29.86,South,177,8.0,13.0,77,0.00,,CLR,0.01,0.00,VWS V15.00,2013-07-21 05:00:00,
2013-07-21 00:01:00,79.2,72.1,29.87,SSW,197,12.0,13.0,79,0.00,,CLR,0.01,0.00,VWS V14.01,2013-07-21 05:01:00,
2013-07-21 00:06:00,79.4,72.7,29.87,South,169,7.0,11.0,80,0.00,,CLR,0.00,0.00,VWS V14.01,2013-07-21 05:06:00,
2013-07-21 00:10:00,79.8,71.9,29.86,South,175,10.0,10.0,77,0.00,,CLR,0.01,0.00,VWS V15.00,2013-07-21 05:10:00,
2013-07-21 00:11:00,79.2,72.5,29.87,South,178,6.0,13.0,80,0.00,,CLR,0.00,0.00,VWS V14.01,2013-07-21 05:11:00,
2013-07-21 00:16:00,79.2,72.5,29.86,SSW,192,5.0,12.0,80,0.00,,CLR,0.00,0.00,VWS V14.01,2013-07-21 05:16:00,
2013-07-21 00:20:00,79.8,72.3,29.86,SSW,196,5.0,13.0,78,0.00,,CLR,0.01,0.00,VWS V15.00,2013-07-21 05:20:00,
2013-07-21 00:21:00,79.0,72.7,29.86,SSW,193,9.0,12.0,81,0.00,,CLR,0.00,0.00,VWS V14.01,2013-07-21 05:21:00,
2013-07-21 00:26:00,78.8,72.1,29.86,SSW,202,9.0,13.0,80,0.00,,CLR,0.00,0.00,VWS V14.01,2013-07-21 05:26:00,
2013-07-21 00:30:00,79.6,72.5,29.87,South,170,6.0,12.0,79,0.00,,CLR,0.01,0.00,VWS V15.00,2013-07-21 05:30:00,
2013-07-21 00:31:00,78.8,72.5,29.87,South,180,4.0,13.0,81,0.00,,CLR,0.00,0.00,VWS V14.01,2013-07-21 05:31:00,
2013-07-21 00:36:00,78.8,72.5,29.87,SSW,195,2.0,10.0,81,0.00,,SCT270,0.00,0.00,VWS V14.01,2013-07-21 05:36:00,
2013-07-21 00:40:00,79.4,72.3,29.87,SSW,212,9.0,14.0,79,0.00,,CLR,0.01,0.00,VWS V15.00,2013-07-21 05:40:00,
2013-07-21 00:41:00,78.6,72.7,29.87,South,182,5.0,10.0,82,0.00,,SCT270,0.00,0.00,VWS V14.01,2013-07-21 05:41:00,
2013-07-21 00:46:00,78.3,72.4,29.87,South,180,5.0,7.0,82,0.00,,SCT270,0.00,0.00,VWS V14.01,2013-07-21 05:46:00,
2013-07-21 00:50:00,79.2,72.1,29.87,South,169,6.0,14.0,79,0.00,,CLR,0.01,0.00,VWS V15.00,2013-07-21 05:50:00,
2013-07-21 00:51:00,78.1,72.2,29.87,South,180,6.0,11.0,82,0.00,,SCT270,0.00,0.00,VWS V14.01,2013-07-21 05:51:00,
2013-07-21 00:56:00,77.9,72.3,29.87,SSW,193,5.0,10.0,83,0.00,,SCT270,0.00,0.00,VWS V14.01,2013-07-21 05:56:00,
2013-07-21 01:00:00,79.2,72.1,29.87,SSW,194,10.0,13.0,79,0.00,,CLR,0.01,0.00,VWS V15.00,2013-07-21 06:00:00,
2013-07-21 01:01:00,77.7,72.1,29.86,South,169,10.0,13.0,83,0.00,,SCT270,0.00,0.00,VWS V14.01,2013-07-21 06:01:00,
2013-07-21 01:06:00,77.6,72.4,29.86,South,182,10.0,13.0,84,0.00,,SCT270,0.00,0.00,VWS V14.01,2013-07-21 06:06:00,
2013-07-21 01:10:00,79.2,72.5,29.87,South,189,7.0,13.0,80,0.00,,CLR,0.00,0.00,VWS V15.00,2013-07-21 06:10:00,
2013-07-21 01:11:00,77.6,72.4,29.86,SSE,164,9.0,13.0,84,0.00,,SCT270,0.00,0.00,VWS V14.01,2013-07-21 06:11:00,
2013-07-21 01:16:00,77.4,72.2,29.86,South,189,8.0,11.0,84,0.00,,SCT270,0.00,0.00,VWS V14.01,2013-07-21 06:16:00,
2013-07-21 01:20:00,79.0,72.7,29.86,South,180,10.0,12.0,81,0.00,,CLR,0.00,0.00,VWS V15.00,2013-07-21 06:20:00,
2013-07-21 01:21:00,77.4,72.5,29.86,SSW,197,7.0,14.0,85,0.00,,SCT270,0.00,0.00,VWS V14.01,2013-07-21 06:21:00,
2013-07-21 01:26:00,77.4,72.5,29.86,South,178,7.0,10.0,85,0.00,,SCT270,0.00,0.00,VWS V14.01,2013-07-21 06:26:00,
2013-07-21 01:30:00,78.8,72.5,29.87,SSE,163,8.0,13.0,81,0.00,,CLR,0.00,0.00,VWS V15.00,2013-07-21 06:30:00,
2013-07-21 01:31:00,77.2,72.3,29.86,South,181,9.0,14.0,85,0.00,,SCT270,0.00,0.00,VWS V14.01,2013-07-21 06:31:00,
2013-07-21 01:36:00,77.2,72.3,29.86,South,175,9.0,12.0,85,0.00,,SCT270,0.00,0.00,VWS V14.01,2013-07-21 06:36:00,
2013-07-21 01:40:00,78.5,72.6,29.87,South,182,3.0,10.0,82,0.00,,CLR,0.00,0.00,VWS V15.00,2013-07-21 06:40:00,
2013-07-21 01:41:00,77.0,72.5,29.86,SSW,194,9.0,13.0,86,0.00,,SCT270,0.00,0.00,VWS V14.01,2013-07-21 06:41:00,
2013-07-21 01:46:00,77.0,72.5,29.86,South,179,6.0,12.0,86,0.00,,SCT270,0.00,0.00,VWS V14.01,2013-07-21 06:46:00,
2013-07-21 01:50:00,78.1,72.2,29.87,South,180,3.0,11.0,82,0.00,,CLR,0.00,0.00,VWS V15.00,2013-07-21 06:50:00,
2013-07-21 01:51:00,76.8,72.3,29.86,South,175,5.0,12.0,86,0.00,,SCT270,0.00,0.00,VWS V14.01,2013-07-21 06:51:00,
2013-07-21 01:56:00,76.7,72.2,29.86,South,169,6.0,13.0,86,0.00,,SCT270,0.00,0.00,VWS V14.01,2013-07-21 06:56:00,
2013-07-21 02:00:00,77.7,72.1,29.86,South,187,6.0,13.0,83,0.00,,CLR,0.00,0.00,VWS V15.00,2013-07-21 07:00:00,
2013-07-21 02:01:00,76.7,72.5,29.86,South,181,7.0,13.0,87,0.00,,SCT270,0.00,0.00,VWS V14.01,2013-07-21 07:01:00,
2013-07-21 02:06:00,76.7,72.5,29.86,SSW,212,7.0,11.0,87,0.00,,SCT270,0.00,0.00,VWS V14.01,2013-07-21 07:06:00,
2013-07-21 02:10:00,77.6,72.4,29.86,South,190,10.0,13.0,84,0.00,,CLR,0.00,0.00,VWS V15.00,2013-07-21 07:10:00,
2013-07-21 02:11:00,76.7,72.5,29.86,SSW,194,9.0,12.0,87,0.00,,SCT270,0.00,0.00,VWS V14.01,2013-07-21 07:11:00,
2013-07-21 02:16:00,76.5,72.3,29.86,South,184,5.0,12.0,87,0.00,,SCT270,0.00,0.00,VWS V14.01,2013-07-21 07:16:00,
2013-07-21 02:20:00,77.4,72.5,29.86,SSW,207,10.0,14.0,85,0.00,,CLR,0.00,0.00,VWS V15.00,2013-07-21 07:20:00,
2013-07-21 02:21:00,76.5,72.3,29.86,SSW,206,9.0,13.0,87,0.00,,SCT270,0.00,0.00,VWS V14.01,2013-07-21 07:21:00,
2013-07-21 02:26:00,76.5,72.3,29.86,SSW,207,5.0,13.0,87,0.00,,SCT270,0.00,0.00,VWS V14.01,2013-07-21 07:26:00,
2013-07-21 02:30:00,77.2,72.3,29.86,SSW,196,9.0,14.0,85,0.00,,CLR,0.00,0.00,VWS V15.00,2013-07-21 07:30:00,
2013-07-21 02:31:00,76.3,72.2,29.86,SSW,198,9.0,13.0,87,0.00,,SCT270,0.00,0.00,VWS V14.01,2013-07-21 07:31:00,
2013-07-21 02:36:00,76.3,72.2,29.86,SSW,193,9.0,15.0,87,0.00,,FEW150,0.00,0.00,VWS V14.01,2013-07-21 07:36:00,
2013-07-21 02:40:00,77.0,72.5,29.86,SSE,163,5.0,13.0,86,0.00,,CLR,0.00,0.00,VWS V15.00,2013-07-21 07:40:00,
2013-07-21 02:41:00,76.3,72.5,29.86,South,188,6.0,15.0,88,0.00,,FEW150,0.00,0.00,VWS V14.01,2013-07-21 07:41:00,
2013-07-21 02:46:00,76.3,72.5,29.86,SSW,192,6.0,11.0,88,0.00,,FEW150,0.00,0.00,VWS V14.01,2013-07-21 07:46:00,
2013-07-21 02:50:00,76.8,72.3,29.86,South,184,4.0,12.0,86,0.00,,CLR,0.00,0.00,VWS V15.00,2013-07-21 07:50:00,
2013-07-21 02:51:00,76.1,72.3,29.86,SSW,211,7.0,13.0,88,0.00,,FEW150,0.00,0.00,VWS V14.01,2013-07-21 07:51:00,
2013-07-21 02:56:00,76.1,72.3,29.86,SSW,202,4.0,12.0,88,0.00,,FEW150,0.00,0.00,VWS V14.01,2013-07-21 07:56:00,
2013-07-21 03:00:00,76.7,72.5,29.86,SSW,199,5.0,13.0,87,0.00,,CLR,0.00,0.00,VWS V15.00,2013-07-21 08:00:00,
2013-07-21 03:01:00,76.1,72.3,29.86,SSW,204,5.0,12.0,88,0.00,,FEW150,0.00,0.00,VWS V14.01,2013-07-21 08:01:00,
2013-07-21 03:06:00,76.0,72.2,29.86,SSW,194,6.0,12.0,88,0.00,,FEW150,0.00,0.00,VWS V14.01,2013-07-21 08:06:00,
2013-07-21 03:10:00,76.7,72.5,29.86,SSW,206,7.0,12.0,87,0.00,,CLR,0.00,0.00,VWS V15.00,2013-07-21 08:10:00,
2013-07-21 03:11:00,76.0,72.2,29.86,SSW,207,4.0,12.0,88,0.00,,FEW150,0.00,0.00,VWS V14.01,2013-07-21 08:11:00,
2013-07-21 03:16:00,75.8,72.0,29.86,SSW,197,3.0,10.0,88,0.00,,FEW150,0.00,0.00,VWS V14.01,2013-07-21 08:16:00,
2013-07-21 03:20:00,76.5,72.3,29.86,SSW,196,7.0,13.0,87,0.00,,CLR,0.00,0.00,VWS V15.00,2013-07-21 08:20:00,
2013-07-21 03:21:00,75.8,72.0,29.86,SSW,207,7.0,10.0,88,0.00,,FEW150,0.00,0.00,VWS V14.01,2013-07-21 08:21:00,
2013-07-21 03:26:00,75.6,71.8,29.86,SSW,196,6.0,10.0,88,0.00,,FEW150,0.00,0.00,VWS V14.01,2013-07-21 08:26:00,
2013-07-21 03:30:00,76.3,72.5,29.86,SSW,198,7.0,13.0,88,0.00,,CLR,0.00,0.00,VWS V15.00,2013-07-21 08:30:00,
2013-07-21 03:31:00,75.6,71.8,29.86,SSW,205,4.0,10.0,88,0.00,,FEW150,0.00,0.00,VWS V14.01,2013-07-21 08:31:00,
2013-07-21 03:36:00,75.8,72.0,29.86,SSW,193,5.0,10.0,88,0.00,,FEW150,0.00,0.00,VWS V14.01,2013-07-21 08:36:00,
2013-07-21 03:40:00,76.3,72.5,29.86,South,183,9.0,15.0,88,0.00,,CLR,0.00,0.00,VWS V15.00,2013-07-21 08:40:00,
2013-07-21 03:41:00,75.8,72.0,29.86,South,184,4.0,11.0,88,0.00,,FEW150,0.00,0.00,VWS V14.01,2013-07-21 08:41:00,
2013-07-21 03:46:00,75.8,72.0,29.86,SSW,194,4.0,10.0,88,0.00,,FEW150,0.00,0.00,VWS V14.01,2013-07-21 08:46:00,
2013-07-21 03:50:00,76.1,72.3,29.86,South,176,10.0,13.0,88,0.00,,CLR,0.00,0.00,VWS V15.00,2013-07-21 08:50:00,
2013-07-21 03:51:00,75.8,72.0,29.86,South,182,5.0,12.0,88,0.00,,FEW150,0.00,0.00,VWS V14.01,2013-07-21 08:51:00,
2013-07-21 03:56:00,75.8,72.0,29.86,SSW,203,4.0,11.0,88,0.00,,FEW150,0.00,0.00,VWS V14.01,2013-07-21 08:56:00,
2013-07-21 04:00:00,76.1,72.3,29.86,SSW,193,12.0,13.0,88,0.00,,CLR,0.00,0.00,VWS V15.00,2013-07-21 09:00:00,
2013-07-21 04:01:00,75.8,72.0,29.86,SSW,193,6.0,11.0,88,0.00,,FEW150,0.00,0.00,VWS V14.01,2013-07-21 09:01:00,
2013-07-21 04:06:00,75.8,72.0,29.86,SSW,208,4.0,11.0,88,0.00,,FEW150,0.00,0.00,VWS V14.01,2013-07-21 09:06:00,
2013-07-21 04:10:00,76.0,72.2,29.86,South,187,8.0,12.0,88,0.00,,CLR,0.00,0.00,VWS V15.00,2013-07-21 09:10:00,
2013-07-21 04:11:00,75.6,71.8,29.86,SSW,202,6.0,11.0,88,0.00,,FEW150,0.00,0.00,VWS V14.01,2013-07-21 09:11:00,
2013-07-21 04:16:00,75.6,71.8,29.86,SSW,210,3.0,11.0,88,0.00,,FEW150,0.00,0.00,VWS V14.01,2013-07-21 09:16:00,
2013-07-21 04:20:00,75.8,72.0,29.86,SSW,212,5.0,10.0,88,0.00,,CLR,0.00,0.00,VWS V15.00,2013-07-21 09:20:00,
2013-07-21 04:21:00,75.6,71.8,29.86,South,180,5.0,11.0,88,0.00,,FEW150,0.00,0.00,VWS V14.01,2013-07-21 09:21:00,
2013-07-21 04:26:00,75.6,71.8,29.86,SSW,206,5.0,8.0,88,0.00,,FEW150,0.00,0.00,VWS V14.01,2013-07-21 09:26:00,
2013-07-21 04:30:00,75.6,71.8,29.86,South,184,7.0,10.0,88,0.00,,CLR,0.00,0.00,VWS V15.00,2013-07-21 09:30:00,
2013-07-21 04:31:00,75.6,71.8,29.86,South,180,5.0,9.0,88,0.00,,FEW150,0.00,0.00,VWS V14.01,2013-07-21 09:31:00,
2013-07-21 04:36:00,75.6,71.8,29.86,South,184,5.0,11.0,88,0.00,,SCT150,0.00,0.00,VWS V14.01,2013-07-21 09:36:00,
2013-07-21 04:40:00,75.8,72.0,29.86,SSW,193,8.0,11.0,88,0.00,,CLR,0.00,0.00,VWS V15.00,2013-07-21 09:40:00,
2013-07-21 04:41:00,75.6,71.8,29.86,SSW,192,5.0,11.0,88,0.00,,SCT150,0.00,0.00,VWS V14.01,2013-07-21 09:41:00,
2013-07-21 04:46:00,75.6,71.8,29.86,SSW,202,5.0,11.0,88,0.00,,SCT150,0.00,0.00,VWS V14.01,2013-07-21 09:46:00,
2013-07-21 04:50:00,75.8,72.0,29.86,South,182,4.0,12.0,88,0.00,,CLR,0.00,0.00,VWS V15.00,2013-07-21 09:50:00,
2013-07-21 04:51:00,75.6,71.8,29.86,SSW,197,8.0,11.0,88,0.00,,SCT150,0.00,0.00,VWS V14.01,2013-07-21 09:51:00,
2013-07-21 04:56:00,75.6,71.8,29.86,SSW,202,7.0,11.0,88,0.00,,SCT150,0.00,0.00,VWS V14.01,2013-07-21 09:56:00,
2013-07-21 05:00:00,75.8,72.0,29.86,SSW,197,6.0,11.0,88,0.00,,CLR,0.00,0.00,VWS V15.00,2013-07-21 10:00:00,
2013-07-21 05:01:00,75.6,72.1,29.86,SSW,209,6.0,11.0,89,0.00,,SCT150,0.00,0.00,VWS V14.01,2013-07-21 10:01:00,
2013-07-21 05:06:00,75.6,72.1,29.86,SSW,195,10.0,12.0,89,0.00,,SCT150,0.00,0.00,VWS V14.01,2013-07-21 10:06:00,
2013-07-21 05:10:00,75.6,71.8,29.86,SSW,199,5.0,11.0,88,0.00,,CLR,0.00,0.00,VWS V15.00,2013-07-21 10:10:00,
2013-07-21 05:11:00,75.4,71.9,29.86,SSW,197,10.0,12.0,89,0.00,,SCT150,0.00,0.00,VWS V14.01,2013-07-21 10:11:00,
2013-07-21 05:16:00,75.4,71.9,29.86,SSW,211,4.0,10.0,89,0.00,,SCT150,0.00,0.00,VWS V14.01,2013-07-21 10:16:00,
2013-07-21 05:20:00,75.6,71.8,29.86,South,190,4.0,11.0,88,0.00,,CLR,0.00,0.00,VWS V15.00,2013-07-21 10:20:00,
2013-07-21 05:21:00,75.4,71.9,29.86,South,184,8.0,11.0,89,0.00,,SCT150,0.00,0.00,VWS V14.01,2013-07-21 10:21:00,
2013-07-21 05:26:00,75.3,71.8,29.86,South,183,6.0,12.0,89,0.00,,SCT150,0.00,0.00,VWS V14.01,2013-07-21 10:26:00,
2013-07-21 05:30:00,75.6,71.8,29.86,South,182,5.0,9.0,88,0.00,,CLR,0.00,0.00,VWS V15.00,2013-07-21 10:30:00,
2013-07-21 05:31:00,75.3,71.8,29.87,South,182,10.0,12.0,89,0.00,,SCT150,0.00,0.00,VWS V14.01,2013-07-21 10:31:00,
2013-07-21 05:36:00,75.3,71.8,29.87,South,191,11.0,13.0,89,0.00,,FEW150,0.00,0.00,VWS V14.01,2013-07-21 10:36:00,
2013-07-21 05:40:00,75.6,71.8,29.86,SSW,192,5.0,11.0,88,0.00,,CLR,0.00,0.00,VWS V15.00,2013-07-21 10:40:00,
2013-07-21 05:41:00,75.3,71.8,29.87,South,186,12.0,13.0,89,0.00,,FEW150,0.00,0.00,VWS V14.01,2013-07-21 10:41:00,
2013-07-21 05:46:00,75.3,71.8,29.86,SSW,192,6.0,12.0,89,0.00,,FEW150,0.00,0.00,VWS V14.01,2013-07-21 10:46:00,
2013-07-21 05:50:00,75.6,71.8,29.86,SSW,192,7.0,12.0,88,0.00,,CLR,0.00,0.00,VWS V15.00,2013-07-21 10:50:00,
2013-07-21 05:51:00,75.3,71.8,29.86,SSW,202,7.0,13.0,89,0.00,,FEW150,0.00,0.00,VWS V14.01,2013-07-21 10:51:00,
2013-07-21 05:56:00,75.3,71.8,29.86,SSE,165,10.0,13.0,89,0.00,,FEW150,0.00,0.00,VWS V14.01,2013-07-21 10:56:00,
2013-07-21 06:00:00,75.6,71.8,29.86,SSW,196,9.0,11.0,88,0.00,,CLR,0.00,0.00,VWS V15.00,2013-07-21 11:00:00,
2013-07-21 06:01:00,75.4,71.9,29.87,South,187,5.0,13.0,89,0.00,,FEW150,0.00,0.00,VWS V14.01,2013-07-21 11:01:00,
2013-07-21 06:06:00,75.3,71.8,29.87,South,182,11.0,13.0,89,0.00,,FEW150,0.00,0.00,VWS V14.01,2013-07-21 11:06:00,
2013-07-21 06:10:00,75.4,71.9,29.86,SSW,192,7.0,12.0,89,0.00,,CLR,0.00,0.00,VWS V15.00,2013-07-21 11:10:00,
2013-07-21 06:11:00,75.3,71.8,29.87,SSW,206,9.0,13.0,89,0.00,,FEW150,0.00,0.00,VWS V14.01,2013-07-21 11:11:00,
2013-07-21 06:16:00,75.1,71.6,29.87,SSW,196,10.0,12.0,89,0.00,,FEW150,0.00,0.00,VWS V14.01,2013-07-21 11:16:00,
2013-07-21 06:20:00,75.4,71.9,29.86,South,173,7.0,11.0,89,0.00,,CLR,0.00,0.00,VWS V15.00,2013-07-21 11:20:00,
2013-07-21 06:21:00,75.3,71.8,29.87,SSE,161,6.0,14.0,89,0.00,,FEW150,0.00,0.00,VWS V14.01,2013-07-21 11:21:00,
2013-07-21 06:26:00,75.3,71.8,29.87,SSW,200,10.0,13.0,89,0.00,,FEW150,0.00,0.00,VWS V14.01,2013-07-21 11:26:00,
2013-07-21 06:30:00,75.3,71.8,29.87,South,175,9.0,12.0,89,0.00,,CLR,0.00,0.00,VWS V15.00,2013-07-21 11:30:00,
2013-07-21 06:31:00,75.1,72.0,29.87,South,183,7.0,14.0,90,0.00,,FEW150,0.00,0.00,VWS V14.01,2013-07-21 11:31:00,
2013-07-21 06:36:00,75.1,71.6,29.87,SSW,194,7.0,14.0,89,0.00,,SCT270,0.00,5.00,VWS V14.01,2013-07-21 11:36:00,
2013-07-21 06:40:00,75.3,71.8,29.87,South,180,10.0,13.0,89,0.00,,CLR,0.00,0.00,VWS V15.00,2013-07-21 11:40:00,
2013-07-21 06:41:00,75.1,72.0,29.87,SSE,159,9.0,14.0,90,0.00,,SCT270,0.00,7.00,VWS V14.01,2013-07-21 11:41:00,
2013-07-21 06:46:00,74.9,71.8,29.87,South,179,6.0,12.0,90,0.00,,SCT270,0.00,9.00,VWS V14.01,2013-07-21 11:46:00,
2013-07-21 06:50:00,75.3,71.8,29.86,SSW,210,9.0,13.0,89,0.00,,CLR,0.00,0.00,VWS V15.00,2013-07-21 11:50:00,
2013-07-21 06:51:00,74.9,71.8,29.87,SSW,192,9.0,12.0,90,0.00,,SCT270,0.00,12.00,VWS V14.01,2013-07-21 11:51:00,
2013-07-21 06:56:00,74.9,71.8,29.87,SW,215,6.0,13.0,90,0.00,,SCT270,0.00,14.00,VWS V14.01,2013-07-21 11:56:00,
2013-07-21 07:00:00,75.4,71.9,29.87,SSW,200,8.0,13.0,89,0.00,,CLR,0.00,0.00,VWS V15.00,2013-07-21 12:00:00,
2013-07-21 07:01:00,74.9,71.8,29.87,SSW,195,6.0,13.0,90,0.00,,SCT270,0.00,19.00,VWS V14.01,2013-07-21 12:01:00,
2013-07-21 07:06:00,74.9,71.8,29.87,SSW,201,5.0,11.0,90,0.00,,SCT270,0.00,21.00,VWS V14.01,2013-07-21 12:06:00,
2013-07-21 07:10:00,75.3,71.8,29.87,South,186,10.0,13.0,89,0.00,,CLR,0.00,0.00,VWS V15.00,2013-07-21 12:10:00,
2013-07-21 07:11:00,74.9,71.8,29.87,SSW,196,6.0,14.0,90,0.00,,SCT270,0.00,25.00,VWS V14.01,2013-07-21 12:11:00,
2013-07-21 07:16:00,74.9,72.1,29.87,SSW,194,5.0,11.0,91,0.00,,SCT270,0.00,33.00,VWS V14.01,2013-07-21 12:16:00,
2013-07-21 07:20:00,75.3,71.8,29.87,SSW,198,5.0,14.0,89,0.00,,CLR,0.00,0.00,VWS V15.00,2013-07-21 12:20:00,
2013-07-21 07:21:00,74.9,72.1,29.87,South,189,4.0,12.0,91,0.00,,SCT270,0.00,32.00,VWS V14.01,2013-07-21 12:21:00,
2013-07-21 07:26:00,74.9,72.1,29.87,South,175,6.0,13.0,91,0.00,,SCT270,0.00,37.00,VWS V14.01,2013-07-21 12:26:00,
2013-07-21 07:30:00,75.1,72.0,29.87,South,184,4.0,14.0,90,0.00,,CLR,0.00,0.00,VWS V15.00,2013-07-21 12:30:00,
2013-07-21 07:31:00,74.7,71.9,29.87,SSW,198,7.0,13.0,91,0.00,,SCT270,0.00,35.00,VWS V14.01,2013-07-21 12:31:00,
2013-07-21 07:36:00,74.7,71.9,29.87,SSW,200,3.0,11.0,91,0.00,,SCT270,0.00,58.00,VWS V14.01,2013-07-21 12:36:00,
2013-07-21 07:40:00,75.1,72.0,29.87,South,184,6.0,14.0,90,0.00,,CLR,0.00,7.00,VWS V15.00,2013-07-21 12:40:00,
2013-07-21 07:41:00,74.7,71.9,29.87,South,191,5.0,11.0,91,0.00,,SCT270,0.00,83.00,VWS V14.01,2013-07-21 12:41:00,
2013-07-21 07:46:00,74.7,71.9,29.88,SSW,198,7.0,11.0,91,0.00,,SCT270,0.00,65.00,VWS V14.01,2013-07-21 12:46:00,
2013-07-21 07:50:00,74.9,71.8,29.87,SSW,198,6.0,12.0,90,0.00,,CLR,0.00,12.00,VWS V15.00,2013-07-21 12:50:00,
2013-07-21 07:51:00,74.7,71.9,29.88,SSW,195,6.0,12.0,91,0.00,,SCT270,0.00,56.00,VWS V14.01,2013-07-21 12:51:00,
2013-07-21 07:56:00,74.9,72.1,29.88,SSW,196,5.0,11.0,91,0.00,,SCT270,0.00,72.00,VWS V14.01,2013-07-21 12:56:00,
2013-07-21 08:00:00,74.9,71.8,29.87,South,171,9.0,13.0,90,0.00,,CLR,0.00,19.00,VWS V15.00,2013-07-21 13:00:00,
2013-07-21 08:01:00,74.9,72.1,29.88,SSW,211,7.0,11.0,91,0.00,,SCT270,0.00,79.00,VWS V14.01,2013-07-21 13:01:00,
2013-07-21 08:06:00,75.1,72.3,29.88,SSW,202,6.0,13.0,91,0.00,,SCT270,0.00,88.00,VWS V14.01,2013-07-21 13:06:00,
2013-07-21 08:10:00,74.9,71.8,29.87,SSW,203,8.0,14.0,90,0.00,,CLR,0.00,25.00,VWS V15.00,2013-07-21 13:10:00,
2013-07-21 08:11:00,75.3,72.5,29.88,SSW,197,9.0,13.0,91,0.00,,SCT270,0.00,91.00,VWS V14.01,2013-07-21 13:11:00,
2013-07-21 08:16:00,75.3,72.5,29.89,SSW,202,3.0,11.0,91,0.00,,SCT270,0.00,77.00,VWS V14.01,2013-07-21 13:16:00,
2013-07-21 08:20:00,74.9,72.1,29.87,South,189,5.0,12.0,91,0.00,,CLR,0.00,32.00,VWS V15.00,2013-07-21 13:20:00,
2013-07-21 08:21:00,75.4,72.6,29.89,South,182,4.0,11.0,91,0.00,,SCT270,0.00,74.00,VWS V14.01,2013-07-21 13:21:00,
2013-07-21 08:26:00,75.6,72.8,29.89,SSW,200,4.0,10.0,91,0.00,,SCT270,0.00,95.00,VWS V14.01,2013-07-21 13:26:00,
2013-07-21 08:30:00,74.7,71.9,29.87,South,190,7.0,13.0,91,0.00,,CLR,0.00,35.00,VWS V15.00,2013-07-21 13:30:00,
2013-07-21 08:31:00,75.8,73.0,29.88,SSW,202,6.0,12.0,91,0.00,,SCT270,0.00,91.00,VWS V14.01,2013-07-21 13:31:00,
2013-07-21 08:36:00,76.0,72.9,29.88,SSW,208,4.0,10.0,90,0.00,,SCT170,0.00,95.00,VWS V14.01,2013-07-21 13:36:00,
2013-07-21 08:40:00,74.7,71.9,29.87,SSW,192,5.0,11.0,91,0.00,,CLR,0.00,83.00,VWS V15.00,2013-07-21 13:40:00,
2013-07-21 08:41:00,76.3,73.2,29.88,SSW,195,5.0,10.0,90,0.00,,SCT170,0.00,244.00,VWS V14.01,2013-07-21 13:41:00,
2013-07-21 08:46:00,76.5,73.0,29.88,SW,215,6.0,11.0,89,0.00,,SCT170,0.00,58.00,VWS V14.01,2013-07-21 13:46:00,
2013-07-21 08:50:00,74.7,71.9,29.88,SSW,194,6.0,12.0,91,0.00,,CLR,0.00,44.00,VWS V15.00,2013-07-21 13:50:00,
2013-07-21 08:51:00,76.8,73.3,29.88,SW,219,7.0,12.0,89,0.00,,SCT170,0.00,77.00,VWS V14.01,2013-07-21 13:51:00,
2013-07-21 08:56:00,77.4,73.6,29.88,SSW,199,7.0,13.0,88,0.00,,SCT170,0.00,111.00,VWS V14.01,2013-07-21 13:56:00,
2013-07-21 09:00:00,74.9,72.1,29.88,SSW,199,9.0,11.0,91,0.00,,CLR,0.00,79.00,VWS V15.00,2013-07-21 14:00:00,
2013-07-21 09:01:00,77.6,73.4,29.89,SW,217,5.0,13.0,87,0.00,,SCT170,0.00,65.00,VWS V14.01,2013-07-21 14:01:00,
2013-07-21 09:06:00,78.1,73.6,29.89,SW,227,6.0,11.0,86,0.00,,SCT170,0.00,327.00,VWS V14.01,2013-07-21 14:06:00,
2013-07-21 09:10:00,75.3,72.5,29.88,SSW,207,7.0,13.0,91,0.00,,CLR,0.00,91.00,VWS V15.00,2013-07-21 14:10:00,
2013-07-21 09:11:00,78.5,73.6,29.89,SSW,208,6.0,11.0,85,0.00,,SCT170,0.00,179.00,VWS V14.01,2013-07-21 14:11:00,
2013-07-21 09:16:00,78.6,73.0,29.89,SSW,204,6.0,12.0,83,0.00,,SCT170,0.00,301.00,VWS V14.01,2013-07-21 14:16:00,
2013-07-21 09:20:00,75.4,72.6,29.89,SSW,202,7.0,11.0,91,0.00,,CLR,0.00,83.00,VWS V15.00,2013-07-21 14:20:00,
2013-07-21 09:21:00,79.0,73.0,29.89,SW,219,11.0,12.0,82,0.00,,SCT170,0.00,445.00,VWS V14.01,2013-07-21 14:21:00,
2013-07-21 09:26:00,79.4,73.1,29.89,SSW,206,7.0,15.0,81,0.00,,SCT170,0.00,462.00,VWS V14.01,2013-07-21 14:26:00,
2013-07-21 09:30:00,75.8,72.7,29.88,SSW,203,5.0,12.0,90,0.00,,CLR,0.00,91.00,VWS V15.00,2013-07-21 14:30:00,
2013-07-21 09:31:00,79.8,73.1,29.88,SSW,209,8.0,15.0,80,0.00,,SCT170,0.00,471.00,VWS V14.01,2013-07-21 14:31:00,
2013-07-21 09:36:00,79.9,72.4,29.88,SW,218,4.0,15.0,78,0.00,,SCT170,0.00,457.00,VWS V14.01,2013-07-21 14:36:00,
2013-07-21 09:40:00,76.3,73.2,29.88,SSW,196,4.0,10.0,90,0.00,,CLR,0.00,244.00,VWS V15.00,2013-07-21 14:40:00,
2013-07-21 09:41:00,80.5,73.0,29.88,SSW,200,9.0,15.0,78,0.00,,SCT170,0.00,508.00,VWS V14.01,2013-07-21 14:41:00,
2013-07-21 09:46:00,80.9,73.0,29.87,SW,218,9.0,12.0,77,0.00,,SCT170,0.00,74.00,VWS V14.01,2013-07-21 14:46:00,
2013-07-21 09:50:00,76.8,73.3,29.88,SW,219,7.0,12.0,89,0.00,,CLR,0.00,77.00,VWS V15.00,2013-07-21 14:50:00,
2013-07-21 09:51:00,81.1,72.8,29.87,SSW,206,7.0,12.0,76,0.00,,SCT170,0.00,545.00,VWS V14.01,2013-07-21 14:51:00,
2013-07-21 09:56:00,81.6,72.9,29.87,SSW,192,10.0,14.0,75,0.00,,SCT170,0.00,555.00,VWS V14.01,2013-07-21 14:56:00,
2013-07-21 10:00:00,77.7,73.5,29.89,SW,214,4.0,13.0,87,0.00,,CLR,0.00,65.00,VWS V15.00,2013-07-21 15:00:00,
2013-07-21 10:01:00,82.0,73.3,29.88,SSW,207,7.0,14.0,75,0.00,,SCT170,0.00,571.00,VWS V14.01,2013-07-21 15:01:00,
2013-07-21 10:06:00,82.2,72.7,29.88,SW,222,3.0,12.0,73,0.00,,SCT170,0.00,587.00,VWS V14.01,2013-07-21 15:06:00,
2013-07-21 10:10:00,78.5,73.6,29.89,SSW,209,6.0,11.0,85,0.00,,CLR,0.00,179.00,VWS V15.00,2013-07-21 15:10:00,
2013-07-21 10:11:00,82.8,73.3,29.88,SSW,194,5.0,12.0,73,0.00,,SCT170,0.00,599.00,VWS V14.01,2013-07-21 15:11:00,
2013-07-21 10:16:00,83.2,73.2,29.88,SW,219,4.0,9.0,72,0.00,,SCT170,0.00,617.00,VWS V14.01,2013-07-21 15:16:00,
2013-07-21 10:20:00,79.2,73.2,29.89,SW,214,7.0,12.0,82,0.00,,CLR,0.00,445.00,VWS V15.00,2013-07-21 15:20:00,
2013-07-21 10:21:00,83.6,72.8,29.88,SSW,203,5.0,9.0,70,0.00,,SCT170,0.00,628.00,VWS V14.01,2013-07-21 15:21:00,
2013-07-21 10:26:00,84.1,72.8,29.88,SW,224,4.0,9.0,69,0.00,,SCT170,0.00,645.00,VWS V14.01,2013-07-21 15:26:00,
2013-07-21 10:30:00,79.8,73.1,29.88,SW,219,9.0,15.0,80,0.00,,CLR,0.00,471.00,VWS V15.00,2013-07-21 15:30:00,
2013-07-21 10:31:00,84.5,73.2,29.88,SSW,212,4.0,9.0,69,0.00,,SCT170,0.00,654.00,VWS V14.01,2013-07-21 15:31:00,
2013-07-21 10:36:00,84.9,73.2,29.88,SSW,205,4.0,10.0,68,0.00,,SCT250,0.00,668.00,VWS V14.01,2013-07-21 15:36:00,
2013-07-21 10:40:00,80.5,73.0,29.88,SSW,208,11.0,15.0,78,0.00,,CLR,0.00,508.00,VWS V15.00,2013-07-21 15:40:00,
2013-07-21 10:41:00,85.1,72.9,29.88,SSW,207,6.0,11.0,67,0.00,,SCT250,0.00,680.00,VWS V14.01,2013-07-21 15:41:00,
2013-07-21 10:46:00,85.5,72.8,29.89,SSW,211,3.0,6.0,66,0.00,,SCT250,0.00,694.00,VWS V14.01,2013-07-21 15:46:00,
2013-07-21 10:50:00,81.1,72.8,29.87,SSW,200,10.0,12.0,76,0.00,,CLR,0.00,545.00,VWS V15.00,2013-07-21 15:50:00,
2013-07-21 10:51:00,86.1,73.4,29.89,SW,223,6.0,11.0,66,0.00,,SCT250,0.00,705.00,VWS V14.01,2013-07-21 15:51:00,
2013-07-21 10:56:00,86.5,72.9,29.89,SW,219,3.0,13.0,64,0.00,,SCT250,0.00,721.00,VWS V14.01,2013-07-21 15:56:00,
2013-07-21 11:00:00,82.0,73.3,29.88,SW,219,5.0,14.0,75,0.00,,CLR,0.00,573.00,VWS V15.00,2013-07-21 16:00:00,
2013-07-21 11:01:00,87.0,73.4,29.89,SW,221,4.0,13.0,64,0.00,,SCT250,0.00,735.00,VWS V14.01,2013-07-21 16:01:00,
2013-07-21 11:06:00,87.4,73.7,29.89,SW,217,8.0,16.0,64,0.00,,SCT250,0.00,744.00,VWS V14.01,2013-07-21 16:06:00,
2013-07-21 11:10:00,82.8,73.3,29.88,SSW,194,4.0,12.0,73,0.00,,CLR,0.00,599.00,VWS V15.00,2013-07-21 16:10:00,
2013-07-21 11:11:00,87.4,73.3,29.89,SSW,211,4.0,16.0,63,0.00,,SCT250,0.00,756.00,VWS V14.01,2013-07-21 16:11:00,
2013-07-21 11:16:00,87.8,73.2,29.89,SW,223,9.0,12.0,62,0.00,,SCT250,0.00,772.00,VWS V14.01,2013-07-21 16:16:00,
2013-07-21 11:20:00,83.8,73.0,29.88,SSW,210,6.0,9.0,70,0.00,,CLR,0.00,628.00,VWS V15.00,2013-07-21 16:20:00,
2013-07-21 11:21:00,88.0,73.4,29.89,SSW,194,7.0,12.0,62,0.00,,SCT250,0.00,775.00,VWS V14.01,2013-07-21 16:21:00,
2013-07-21 11:26:00,88.4,74.2,29.89,SSW,209,5.0,12.0,63,0.00,,SCT250,0.00,805.00,VWS V14.01,2013-07-21 16:26:00,
2013-07-21 11:30:00,84.7,73.4,29.88,SW,215,7.0,9.0,69,0.00,,CLR,0.00,656.00,VWS V15.00,2013-07-21 16:30:00,
2013-07-21 11:31:00,88.8,74.1,29.89,South,189,3.0,12.0,62,0.00,,SCT250,0.00,747.00,VWS V14.01,2013-07-21 16:31:00,
2013-07-21 11:36:00,89.3,74.6,29.89,SSW,209,9.0,9.0,62,0.00,,SCT250,0.00,823.00,VWS V14.01,2013-07-21 16:36:00,
2013-07-21 11:40:00,85.1,72.9,29.88,SSW,209,2.0,11.0,67,0.00,,CLR,0.00,684.00,VWS V15.00,2013-07-21 16:40:00,
2013-07-21 11:41:00,89.3,73.6,29.89,SSW,213,7.0,10.0,60,0.00,,SCT250,0.00,840.00,VWS V14.01,2013-07-21 16:41:00,
2013-07-21 11:46:00,89.3,74.6,29.88,SSW,193,3.0,10.0,62,0.00,,SCT250,0.00,174.00,VWS V14.01,2013-07-21 16:46:00,
2013-07-21 11:50:00,86.1,73.4,29.89,SW,222,5.0,11.0,66,0.00,,CLR,0.00,705.00,VWS V15.00,2013-07-21 16:50:00,
2013-07-21 11:51:00,89.3,74.6,29.88,SSW,195,5.0,10.0,62,0.00,,SCT250,0.00,838.00,VWS V14.01,2013-07-21 16:51:00,
2013-07-21 11:56:00,89.7,75.0,29.88,South,191,5.0,9.0,62,0.00,,SCT250,0.00,858.00,VWS V14.01,2013-07-21 16:56:00,
2013-07-21 12:00:00,87.0,73.4,29.89,SW,223,4.0,13.0,64,0.00,,CLR,0.00,735.00,VWS V15.00,2013-07-21 17:00:00,
2013-07-21 12:01:00,89.9,74.7,29.88,South,176,7.0,9.0,61,0.00,,SCT250,0.00,809.00,VWS V14.01,2013-07-21 17:01:00,
2013-07-21 12:06:00,90.5,74.7,29.88,South,183,3.0,6.0,60,0.00,,SCT250,0.00,911.00,VWS V14.01,2013-07-21 17:06:00,
2013-07-21 12:10:00,87.6,73.5,29.89,SSW,209,9.0,16.0,63,0.00,,CLR,0.00,761.00,VWS V15.00,2013-07-21 17:10:00,
2013-07-21 12:11:00,91.2,74.9,29.88,SSE,157,3.0,7.0,59,0.00,,SCT250,0.00,953.00,VWS V14.01,2013-07-21 17:11:00,
2013-07-21 12:16:00,91.6,74.7,29.87,South,180,4.0,7.0,58,0.00,,SCT250,0.00,918.00,VWS V14.01,2013-07-21 17:16:00,
2013-07-21 12:20:00,88.0,73.4,29.89,SSW,201,5.0,12.0,62,0.00,,CLR,0.00,775.00,VWS V15.00,2013-07-21 17:20:00,
2013-07-21 12:21:00,91.8,74.9,29.87,South,181,4.0,7.0,58,0.00,,SCT250,0.00,930.00,VWS V14.01,2013-07-21 17:21:00,
2013-07-21 12:26:00,91.4,74.6,29.87,South,182,4.0,7.0,58,0.00,,SCT250,0.00,970.00,VWS V14.01,2013-07-21 17:26:00,
2013-07-21 12:30:00,88.8,74.1,29.89,South,189,3.0,12.0,62,0.00,,CLR,0.00,747.00,VWS V15.00,2013-07-21 17:30:00,
2013-07-21 12:31:00,91.4,74.6,29.87,South,181,2.0,7.0,58,0.00,,SCT250,0.00,155.00,VWS V14.01,2013-07-21 17:31:00,
2013-07-21 12:36:00,91.2,74.9,29.87,South,180,2.0,5.0,59,0.00,,SCT250,0.00,153.00,VWS V14.01,2013-07-21 17:36:00,
2013-07-21 12:40:00,89.3,73.6,29.89,SSW,213,4.0,10.0,60,0.00,,CLR,0.00,842.00,VWS V15.00,2013-07-21 17:40:00,
2013-07-21 12:41:00,90.5,74.7,29.87,South,179,0.0,5.0,60,0.00,,SCT250,0.00,134.00,VWS V14.01,2013-07-21 17:41:00,
2013-07-21 12:47:00,90.1,74.3,29.87,South,179,3.0,4.0,60,0.00,,SCT250,0.00,176.00,VWS V14.01,2013-07-21 17:47:00,
2013-07-21 12:50:00,89.3,74.6,29.88,South,182,6.0,10.0,62,0.00,,CLR,0.00,838.00,VWS V15.00,2013-07-21 17:50:00,
2013-07-21 12:52:00,89.9,74.7,29.87,South,175,2.0,5.0,61,0.00,,SCT250,0.00,225.00,VWS V14.01,2013-07-21 17:52:00,
2013-07-21 12:57:00,89.7,74.5,29.87,South,175,0.0,4.0,61,0.00,,SCT250,0.00,167.00,VWS V14.01,2013-07-21 17:57:00,
2013-07-21 13:00:00,89.9,74.7,29.88,South,177,5.0,9.0,61,0.00,,CLR,0.00,809.00,VWS V15.00,2013-07-21 18:00:00,
2013-07-21 13:02:00,89.5,74.3,29.87,SSE,165,2.0,6.0,61,0.00,,SCT250,0.00,207.00,VWS V14.01,2013-07-21 18:02:00,
2013-07-21 13:07:00,89.7,75.0,29.87,SSE,165,3.0,6.0,62,0.00,,SCT250,0.00,285.00,VWS V14.01,2013-07-21 18:07:00,
2013-07-21 13:10:00,91.2,74.9,29.88,SSE,157,2.0,7.0,59,0.00,,CLR,0.00,953.00,VWS V15.00,2013-07-21 18:10:00,
2013-07-21 13:12:00,90.1,74.8,29.87,South,178,3.0,7.0,61,0.00,,SCT250,0.00,220.00,VWS V14.01,2013-07-21 18:12:00,
2013-07-21 13:17:00,90.1,73.8,29.86,South,178,5.0,5.0,59,0.00,,SCT250,0.00,251.00,VWS V14.01,2013-07-21 18:17:00,
2013-07-21 13:20:00,91.8,74.9,29.87,South,180,4.0,7.0,58,0.00,,CLR,0.00,155.00,VWS V15.00,2013-07-21 18:20:00,
2013-07-21 13:22:00,90.3,74.0,29.86,South,188,3.0,5.0,59,0.00,,SCT250,0.00,1032.00,VWS V14.01,2013-07-21 18:22:00,
2013-07-21 13:27:00,91.4,74.6,29.86,SSW,192,7.0,9.0,58,0.00,,SCT250,0.00,1023.00,VWS V14.01,2013-07-21 18:27:00,
2013-07-21 13:30:00,91.4,74.6,29.87,South,181,3.0,7.0,58,0.00,,CLR,0.00,155.00,VWS V15.00,2013-07-21 18:30:00,
2013-07-21 13:32:00,92.5,73.4,29.85,SSW,199,4.0,9.0,54,0.00,,SCT250,0.00,1037.00,VWS V14.01,2013-07-21 18:32:00,
2013-07-21 13:37:00,93.2,72.4,29.85,South,183,1.0,6.0,51,0.00,,SCT250,0.00,1023.00,VWS V14.01,2013-07-21 18:37:00,
2013-07-21 13:40:00,90.5,74.7,29.87,South,179,0.0,5.0,60,0.00,,CLR,0.00,134.00,VWS V15.00,2013-07-21 18:40:00,
2013-07-21 13:42:00,93.6,73.3,29.85,South,175,5.0,7.0,52,0.00,,SCT250,0.00,1046.00,VWS V14.01,2013-07-21 18:42:00,
2013-07-21 13:47:00,93.8,72.9,29.85,South,182,5.0,11.0,51,0.00,,SCT250,0.00,954.00,VWS V14.01,2013-07-21 18:47:00,
2013-07-21 13:50:00,89.9,74.7,29.87,South,175,2.0,5.0,61,0.00,,CLR,0.00,225.00,VWS V15.00,2013-07-21 18:50:00,
2013-07-21 13:52:00,94.0,72.5,29.85,South,182,5.0,11.0,50,0.00,,SCT250,0.00,896.00,VWS V14.01,2013-07-21 18:52:00,
2013-07-21 13:57:00,93.8,73.5,29.85,South,181,9.0,10.0,52,0.00,,SCT250,0.00,879.00,VWS V14.01,2013-07-21 18:57:00,
2013-07-21 14:00:00,89.5,74.3,29.87,SSE,165,2.0,6.0,61,0.00,,CLR,0.00,207.00,VWS V15.00,2013-07-21 19:00:00,
2013-07-21 14:02:00,93.2,73.5,29.84,South,184,5.0,10.0,53,0.00,,SCT250,0.00,213.00,VWS V14.01,2013-07-21 19:02:00,
2013-07-21 14:07:00,91.6,71.5,29.84,SW,216,15.0,15.0,52,0.00,,SCT250,0.00,998.00,VWS V14.01,2013-07-21 19:07:00,
2013-07-21 14:10:00,90.1,74.8,29.87,South,178,3.0,7.0,61,0.00,,CLR,0.00,220.00,VWS V15.00,2013-07-21 19:10:00,
2013-07-21 14:12:00,91.0,71.5,29.84,SSW,205,8.0,10.0,53,0.00,,SCT250,0.00,976.00,VWS V14.01,2013-07-21 19:12:00,
2013-07-21 14:17:00,91.2,71.1,29.84,South,180,5.0,14.0,52,0.00,,SCT250,0.00,207.00,VWS V14.01,2013-07-21 19:17:00,
2013-07-21 14:20:00,90.3,74.0,29.86,South,188,3.0,5.0,59,0.00,,CLR,0.00,1032.00,VWS V15.00,2013-07-21 19:20:00,
2013-07-21 14:22:00,90.7,71.8,29.84,SSW,192,5.0,6.0,54,0.00,,SCT250,0.00,214.00,VWS V14.01,2013-07-21 19:22:00,
2013-07-21 14:27:00,90.3,71.9,29.84,South,182,8.0,12.0,55,0.00,,SCT250,0.00,893.00,VWS V14.01,2013-07-21 19:27:00,
2013-07-21 14:30:00,92.5,73.4,29.85,SSW,199,4.0,9.0,54,0.00,,CLR,0.00,1037.00,VWS V15.00,2013-07-21 19:30:00,
2013-07-21 14:32:00,91.0,73.7,29.84,South,180,3.0,6.0,57,0.00,,SCT250,0.00,925.00,VWS V14.01,2013-07-21 19:32:00,
2013-07-21 14:37:00,92.1,73.1,29.84,South,183,5.0,7.0,54,0.00,,BKN300,0.00,963.00,VWS V14.01,2013-07-21 19:37:00,
2013-07-21 14:40:00,93.6,73.3,29.85,South,175,5.0,7.0,52,0.00,,CLR,0.00,1046.00,VWS V15.00,2013-07-21 19:40:00,
2013-07-21 14:42:00,92.9,73.8,29.84,South,190,5.0,5.0,54,0.00,,BKN300,0.00,898.00,VWS V14.01,2013-07-21 19:42:00,
2013-07-21 14:47:00,92.9,72.1,29.83,South,181,6.0,7.0,51,0.00,,BKN300,0.00,733.00,VWS V14.01,2013-07-21 19:47:00,
2013-07-21 14:50:00,94.0,72.5,29.85,South,182,5.0,11.0,50,0.00,,CLR,0.00,896.00,VWS V15.00,2013-07-21 19:50:00,
2013-07-21 14:52:00,93.4,72.6,29.83,South,173,4.0,4.0,51,0.00,,BKN300,0.00,912.00,VWS V14.01,2013-07-21 19:52:00,
2013-07-21 14:57:00,94.0,72.5,29.83,South,186,5.0,6.0,50,0.00,,BKN300,0.00,879.00,VWS V14.01,2013-07-21 19:57:00,
2013-07-21 15:00:00,93.2,73.5,29.84,South,184,5.0,10.0,53,0.00,,CLR,0.00,213.00,VWS V15.00,2013-07-21 20:00:00,
2013-07-21 15:02:00,94.0,72.5,29.83,South,182,5.0,5.0,50,0.00,,BKN300,0.00,916.00,VWS V14.01,2013-07-21 20:02:00,
2013-07-21 15:07:00,94.5,72.4,29.83,SSW,194,3.0,9.0,49,0.00,,BKN300,0.00,919.00,VWS V14.01,2013-07-21 20:07:00,
2013-07-21 15:10:00,91.0,71.5,29.84,South,180,10.0,16.0,53,0.00,,CLR,0.00,359.00,VWS V15.00,2013-07-21 20:10:00,
2013-07-21 15:12:00,94.5,71.8,29.83,South,186,6.0,6.0,48,0.00,,BKN300,0.00,169.00,VWS V14.01,2013-07-21 20:12:00,
2013-07-21 15:17:00,94.3,71.6,29.83,South,180,5.0,7.0,48,0.00,,BKN300,0.00,953.00,VWS V14.01,2013-07-21 20:17:00,
2013-07-21 15:20:00,90.7,71.8,29.84,South,188,6.0,14.0,54,0.00,,CLR,0.00,214.00,VWS V15.00,2013-07-21 20:20:00,
2013-07-21 15:22:00,94.3,71.0,29.83,SSW,196,5.0,10.0,47,0.00,,BKN300,0.00,881.00,VWS V14.01,2013-07-21 20:22:00,
2013-07-21 15:27:00,94.3,70.4,29.83,SSW,203,11.0,16.0,46,0.00,,BKN300,0.00,846.00,VWS V14.01,2013-07-21 20:27:00,
2013-07-21 15:30:00,91.0,73.7,29.84,South,180,6.0,12.0,57,0.00,,CLR,0.00,925.00,VWS V15.00,2013-07-21 20:30:00,
2013-07-21 15:32:00,94.5,70.5,29.83,South,182,16.0,16.0,46,0.00,,BKN300,0.00,833.00,VWS V14.01,2013-07-21 20:32:00,
2013-07-21 15:37:00,94.0,69.4,29.83,SSW,196,10.0,16.0,45,0.00,,BKN300,0.00,824.00,VWS V14.01,2013-07-21 20:37:00,
2013-07-21 15:40:00,92.9,73.8,29.84,SSW,192,4.0,7.0,54,0.00,,CLR,0.00,898.00,VWS V15.00,2013-07-21 20:40:00,
2013-07-21 15:42:00,94.0,70.7,29.83,SSW,196,11.0,11.0,47,0.00,,BKN300,0.00,812.00,VWS V14.01,2013-07-21 20:42:00,
2013-07-21 15:47:00,94.0,71.9,29.82,SSW,201,7.0,13.0,49,0.00,,BKN300,0.00,802.00,VWS V14.01,2013-07-21 20:47:00,
2013-07-21 15:50:00,93.4,73.2,29.83,South,171,3.0,7.0,52,0.00,,CLR,0.00,912.00,VWS V15.00,2013-07-21 20:50:00,
2013-07-21 15:52:00,94.3,72.8,29.82,South,189,9.0,9.0,50,0.00,,BKN300,0.00,788.00,VWS V14.01,2013-07-21 20:52:00,
2013-07-21 15:57:00,94.3,73.4,29.82,SSW,192,9.0,14.0,51,0.00,,BKN300,0.00,779.00,VWS V14.01,2013-07-21 20:57:00,
2013-07-21 16:00:00,94.0,72.5,29.83,South,178,5.0,7.0,50,0.00,,CLR,0.00,916.00,VWS V15.00,2013-07-21 21:00:00,
2013-07-21 16:02:00,94.0,72.5,29.81,South,169,5.0,8.0,50,0.00,,BKN300,0.00,768.00,VWS V14.01,2013-07-21 21:02:00,
2013-07-21 16:07:00,94.0,71.9,29.81,SSW,199,10.0,11.0,49,0.00,,BKN300,0.00,754.00,VWS V14.01,2013-07-21 21:07:00,
2013-07-21 16:10:00,94.5,71.8,29.83,South,185,5.0,9.0,48,0.00,,CLR,0.00,169.00,VWS V15.00,2013-07-21 21:10:00,
2013-07-21 16:12:00,94.0,71.9,29.81,SSW,196,9.0,11.0,49,0.00,,BKN300,0.00,752.00,VWS V14.01,2013-07-21 21:12:00,
2013-07-21 16:17:00,94.0,70.7,29.81,South,190,6.0,13.0,47,0.00,,BKN300,0.00,742.00,VWS V14.01,2013-07-21 21:17:00,
2013-07-21 16:20:00,94.3,71.0,29.83,South,190,10.0,12.0,47,0.00,,CLR,0.00,889.00,VWS V15.00,2013-07-21 21:20:00,
2013-07-21 16:22:00,94.3,70.4,29.81,SSW,198,6.0,6.0,46,0.00,,BKN300,0.00,731.00,VWS V14.01,2013-07-21 21:22:00,
2013-07-21 16:27:00,94.3,70.4,29.81,South,182,6.0,11.0,46,0.00,,BKN300,0.00,710.00,VWS V14.01,2013-07-21 21:27:00,
2013-07-21 16:30:00,94.5,70.5,29.83,SSE,159,8.0,16.0,46,0.00,,CLR,0.00,833.00,VWS V15.00,2013-07-21 21:30:00,
2013-07-21 16:32:00,94.3,70.4,29.81,South,181,5.0,5.0,46,0.00,,BKN300,0.00,694.00,VWS V14.01,2013-07-21 21:32:00,
2013-07-21 16:37:00,94.0,71.9,29.81,South,184,9.0,12.0,49,0.00,,BKN300,0.00,664.00,VWS V14.01,2013-07-21 21:37:00,
2013-07-21 16:40:00,94.0,70.7,29.83,South,189,7.0,16.0,47,0.00,,CLR,0.00,812.00,VWS V15.00,2013-07-21 21:40:00,
2013-07-21 16:42:00,94.0,71.9,29.81,South,189,6.0,6.0,49,0.00,,BKN300,0.00,666.00,VWS V14.01,2013-07-21 21:42:00,
2013-07-21 16:47:00,94.0,71.9,29.80,South,178,9.0,11.0,49,0.00,,BKN300,0.00,647.00,VWS V14.01,2013-07-21 21:47:00,
2013-07-21 16:50:00,94.3,72.8,29.82,SSW,207,5.0,14.0,50,0.00,,CLR,0.00,791.00,VWS V15.00,2013-07-21 21:50:00,
2013-07-21 16:52:00,94.0,71.3,29.80,SSW,202,6.0,12.0,48,0.00,,BKN300,0.00,621.00,VWS V14.01,2013-07-21 21:52:00,
2013-07-21 16:57:00,93.8,71.8,29.80,South,187,7.0,12.0,49,0.00,,BKN300,0.00,621.00,VWS V14.01,2013-07-21 21:57:00,
2013-07-21 17:00:00,94.0,72.5,29.81,SSW,192,8.0,14.0,50,0.00,,CLR,0.00,768.00,VWS V15.00,2013-07-21 22:00:00,
2013-07-21 17:02:00,93.6,71.0,29.80,South,184,9.0,11.0,48,0.00,,BKN300,0.00,592.00,VWS V14.01,2013-07-21 22:02:00,
2013-07-21 17:07:00,93.6,71.6,29.80,South,190,5.0,13.0,49,0.00,,BKN300,0.00,592.00,VWS V14.01,2013-07-21 22:07:00,
2013-07-21 17:10:00,94.0,71.9,29.81,SSW,199,5.0,11.0,49,0.00,,CLR,0.00,752.00,VWS V15.00,2013-07-21 22:10:00,
2013-07-21 17:12:00,93.6,70.3,29.80,South,190,10.0,10.0,47,0.00,,BKN300,0.00,578.00,VWS V14.01,2013-07-21 22:12:00,
2013-07-21 17:17:00,93.8,69.9,29.80,South,187,6.0,12.0,46,0.00,,BKN300,0.00,563.00,VWS V14.01,2013-07-21 22:17:00,
2013-07-21 17:20:00,94.3,70.4,29.81,SSW,193,4.0,13.0,46,0.00,,CLR,0.00,731.00,VWS V15.00,2013-07-21 22:20:00,
2013-07-21 17:22:00,94.0,70.7,29.80,South,177,6.0,9.0,47,0.00,,BKN300,0.00,554.00,VWS V14.01,2013-07-21 22:22:00,
2013-07-21 17:27:00,94.0,70.7,29.80,South,176,5.0,10.0,47,0.00,,BKN300,0.00,548.00,VWS V14.01,2013-07-21 22:27:00,
2013-07-21 17:30:00,94.3,70.4,29.81,South,180,5.0,11.0,46,0.00,,CLR,0.00,696.00,VWS V15.00,2013-07-21 22:30:00,
2013-07-21 17:32:00,94.3,69.7,29.79,South,187,9.0,13.0,45,0.00,,BKN300,0.00,519.00,VWS V14.01,2013-07-21 22:32:00,
2013-07-21 17:37:00,94.3,71.0,29.79,South,191,7.0,13.0,47,0.00,,BKN300,0.00,494.00,VWS V14.01,2013-07-21 22:37:00,
2013-07-21 17:40:00,94.0,71.9,29.81,South,181,6.0,12.0,49,0.00,,CLR,0.00,666.00,VWS V15.00,2013-07-21 22:40:00,
2013-07-21 17:42:00,94.3,71.6,29.79,SSW,205,9.0,10.0,48,0.00,,BKN300,0.00,483.00,VWS V14.01,2013-07-21 22:42:00,
2013-07-21 17:47:00,94.3,69.7,29.79,SSE,165,7.0,13.0,45,0.00,,BKN300,0.00,473.00,VWS V14.01,2013-07-21 22:47:00,
2013-07-21 17:50:00,94.0,71.3,29.80,SSW,205,10.0,11.0,48,0.00,,CLR,0.00,621.00,VWS V15.00,2013-07-21 22:50:00,
2013-07-21 17:52:00,94.3,70.4,29.79,South,175,7.0,10.0,46,0.00,,BKN300,0.00,452.00,VWS V14.01,2013-07-21 22:52:00,
2013-07-21 17:57:00,94.3,71.6,29.79,South,185,4.0,10.0,48,0.00,,BKN300,0.00,448.00,VWS V14.01,2013-07-21 22:57:00,
2013-07-21 18:00:00,93.6,71.0,29.80,South,178,11.0,12.0,48,0.00,,CLR,0.00,596.00,VWS V15.00,2013-07-21 23:00:00,
2013-07-21 18:02:00,94.5,70.5,29.80,South,179,10.0,10.0,46,0.00,,BKN300,0.00,432.00,VWS V14.01,2013-07-21 23:02:00,
2013-07-21 18:07:00,94.5,69.9,29.80,South,171,3.0,10.0,45,0.00,,BKN300,0.00,399.00,VWS V14.01,2013-07-21 23:07:00,
2013-07-21 18:10:00,93.6,71.0,29.80,SSW,204,8.0,13.0,48,0.00,,CLR,0.00,578.00,VWS V15.00,2013-07-21 23:10:00,
2013-07-21 18:12:00,94.5,68.6,29.80,SSW,203,6.0,9.0,43,0.00,,BKN300,0.00,378.00,VWS V14.01,2013-07-21 23:12:00,
2013-07-21 18:17:00,94.5,69.2,29.79,SSW,197,9.0,16.0,44,0.00,,BKN300,0.00,360.00,VWS V14.01,2013-07-21 23:17:00,
2013-07-21 18:20:00,94.0,70.7,29.80,SSW,194,5.0,12.0,47,0.00,,CLR,0.00,554.00,VWS V15.00,2013-07-21 23:20:00,
2013-07-21 18:22:00,94.3,68.4,29.79,SW,214,6.0,6.0,43,0.00,,BKN300,0.00,343.00,VWS V14.01,2013-07-21 23:22:00,
2013-07-21 18:27:00,94.0,68.1,29.79,SSW,202,9.0,15.0,43,0.00,,BKN300,0.00,316.00,VWS V14.01,2013-07-21 23:27:00,
2013-07-21 18:30:00,94.3,69.7,29.79,SSW,198,12.0,12.0,45,0.00,,CLR,0.00,519.00,VWS V15.00,2013-07-21 23:30:00,
2013-07-21 18:32:00,93.8,69.3,29.79,SSW,207,7.0,7.0,45,0.00,,BKN300,0.00,81.00,VWS V14.01,2013-07-21 23:32:00,
2013-07-21 18:37:00,93.4,70.8,29.79,SSW,209,5.0,10.0,48,0.00,,SCT300,0.00,79.00,VWS V14.01,2013-07-21 23:37:00,
2013-07-21 18:40:00,94.3,71.6,29.79,SSW,203,10.0,15.0,48,0.00,,CLR,0.00,483.00,VWS V15.00,2013-07-21 23:40:00,
2013-07-21 18:42:00,93.2,68.1,29.79,SSW,192,6.0,12.0,44,0.00,,SCT300,0.00,288.00,VWS V14.01,2013-07-21 23:42:00,
2013-07-21 18:47:00,93.4,68.2,29.79,SSW,211,6.0,15.0,44,0.00,,SCT300,0.00,171.00,VWS V14.01,2013-07-21 23:47:00,
2013-07-21 18:50:00,94.3,70.4,29.79,South,176,10.0,13.0,46,0.00,,CLR,0.00,452.00,VWS V15.00,2013-07-21 23:50:00,
2013-07-21 18:52:00,93.4,68.2,29.79,SW,215,6.0,9.0,44,0.00,,SCT300,0.00,262.00,VWS V14.01,2013-07-21 23:52:00,
2013-07-21 18:57:00,93.6,69.1,29.79,SSW,195,13.0,13.0,45,0.00,,SCT300,0.00,250.00,VWS V14.01,2013-07-21 23:57:00,
2013-07-21 19:00:00,94.5,70.5,29.80,South,178,9.0,11.0,46,0.00,,CLR,0.00,432.00,VWS V15.00,2013-07-22 00:00:00,
2013-07-21 19:02:00,93.4,69.5,29.79,SSW,192,8.0,8.0,46,0.00,,SCT300,0.00,232.00,VWS V14.01,2013-07-22 00:02:00,
2013-07-21 19:07:00,93.2,70.0,29.79,South,189,9.0,15.0,47,0.00,,SCT300,0.00,209.00,VWS V14.01,2013-07-22 00:07:00,
2013-07-21 19:10:00,94.5,68.6,29.80,SSW,198,9.0,13.0,43,0.00,,CLR,0.00,378.00,VWS V15.00,2013-07-22 00:10:00,
2013-07-21 19:12:00,92.7,71.3,29.79,South,187,4.0,5.0,50,0.00,,SCT300,0.00,190.00,VWS V14.01,2013-07-22 00:12:00,
2013-07-21 19:17:00,92.3,71.6,29.79,South,189,5.0,11.0,51,0.00,,SCT300,0.00,174.00,VWS V14.01,2013-07-22 00:17:00,
2013-07-21 19:20:00,94.3,67.7,29.79,SW,214,4.0,16.0,42,0.00,,CLR,0.00,343.00,VWS V15.00,2013-07-22 00:20:00,
2013-07-21 19:22:00,92.3,71.6,29.79,SSW,198,8.0,8.0,51,0.00,,SCT300,0.00,149.00,VWS V14.01,2013-07-22 00:22:00,
2013-07-21 19:27:00,92.1,71.4,29.79,SSW,205,7.0,9.0,51,0.00,,SCT300,0.00,137.00,VWS V14.01,2013-07-22 00:27:00,
2013-07-21 19:30:00,93.8,69.3,29.79,SSW,203,5.0,15.0,45,0.00,,CLR,0.00,81.00,VWS V15.00,2013-07-22 00:30:00,
2013-07-21 19:32:00,92.1,71.4,29.79,South,175,5.0,5.0,51,0.00,,SCT300,0.00,132.00,VWS V14.01,2013-07-22 00:32:00,
2013-07-21 19:37:00,91.8,71.7,29.79,South,188,4.0,7.0,52,0.00,,SCT300,0.00,114.00,VWS V14.01,2013-07-22 00:37:00,
2013-07-21 19:40:00,93.2,68.1,29.79,SSW,192,11.0,16.0,44,0.00,,CLR,0.00,288.00,VWS V15.00,2013-07-22 00:40:00,
2013-07-21 19:42:00,91.8,72.2,29.79,SSW,194,5.0,6.0,53,0.00,,SCT300,0.00,104.00,VWS V14.01,2013-07-22 00:42:00,
2013-07-21 19:47:00,91.6,72.6,29.79,South,177,4.0,9.0,54,0.00,,SCT300,0.00,88.00,VWS V14.01,2013-07-22 00:47:00,
2013-07-21 19:50:00,93.4,68.9,29.79,SW,215,6.0,15.0,45,0.00,,CLR,0.00,264.00,VWS V15.00,2013-07-22 00:50:00,
2013-07-21 19:52:00,91.4,72.4,29.79,SSW,192,4.0,6.0,54,0.00,,SCT300,0.00,69.00,VWS V14.01,2013-07-22 00:52:00,
2013-07-21 19:57:00,91.2,72.2,29.79,South,180,6.0,11.0,54,0.00,,SCT300,0.00,63.00,VWS V14.01,2013-07-22 00:57:00,
2013-07-21 20:00:00,93.4,69.5,29.79,South,189,5.0,13.0,46,0.00,,CLR,0.00,232.00,VWS V15.00,2013-07-22 01:00:00,
2013-07-21 20:02:00,91.0,72.1,29.80,South,182,4.0,5.0,54,0.00,,SCT300,0.00,47.00,VWS V14.01,2013-07-22 01:02:00,
2013-07-21 20:07:00,90.7,72.3,29.80,SSW,194,3.0,10.0,55,0.00,,SCT300,0.00,42.00,VWS V14.01,2013-07-22 01:07:00,
2013-07-21 20:10:00,92.7,71.3,29.79,South,186,5.0,15.0,50,0.00,,CLR,0.00,190.00,VWS V15.00,2013-07-22 01:10:00,
2013-07-21 20:12:00,90.5,73.2,29.80,South,176,6.0,7.0,57,0.00,,SCT300,0.00,30.00,VWS V14.01,2013-07-22 01:12:00,
2013-07-21 20:17:00,90.3,71.9,29.80,South,188,5.0,9.0,55,0.00,,SCT300,0.00,21.00,VWS V14.01,2013-07-22 01:17:00,
2013-07-21 20:20:00,92.3,71.6,29.79,South,191,6.0,12.0,51,0.00,,CLR,0.00,149.00,VWS V15.00,2013-07-22 01:20:00,
2013-07-21 20:22:00,90.1,71.8,29.80,South,184,5.0,5.0,55,0.00,,SCT300,0.00,16.00,VWS V14.01,2013-07-22 01:22:00,
2013-07-21 20:27:00,90.1,72.3,29.80,South,175,4.0,9.0,56,0.00,,SCT300,0.00,11.00,VWS V14.01,2013-07-22 01:27:00,
2013-07-21 20:30:00,92.1,71.4,29.79,South,175,4.0,11.0,51,0.00,,CLR,0.00,132.00,VWS V15.00,2013-07-22 01:30:00,
2013-07-21 20:32:00,89.9,73.7,29.80,SSW,196,5.0,7.0,59,0.00,,SCT300,0.00,9.00,VWS V14.01,2013-07-22 01:32:00,
2013-07-21 20:37:00,89.5,73.3,29.80,SSW,192,4.0,8.0,59,0.00,,BKN300,0.00,5.00,VWS V14.01,2013-07-22 01:37:00,
2013-07-21 20:40:00,91.8,72.2,29.79,SSW,193,5.0,10.0,53,0.00,,CLR,0.00,104.00,VWS V15.00,2013-07-22 01:40:00,
2013-07-21 20:42:00,89.3,73.1,29.80,SSW,195,6.0,10.0,59,0.00,,BKN300,0.00,0.00,VWS V14.01,2013-07-22 01:42:00,
2013-07-21 20:47:00,89.0,72.8,29.81,South,186,3.0,10.0,59,0.00,,BKN300,0.00,0.00,VWS V14.01,2013-07-22 01:47:00,
2013-07-21 20:50:00,91.4,72.4,29.79,South,187,4.0,9.0,54,0.00,,CLR,0.00,70.00,VWS V15.00,2013-07-22 01:50:00,
2013-07-21 20:52:00,89.0,72.8,29.81,SSW,194,7.0,7.0,59,0.00,,BKN300,0.00,0.00,VWS V14.01,2013-07-22 01:52:00,
2013-07-21 20:57:00,88.8,72.1,29.81,SSW,208,11.0,21.0,58,0.00,,BKN300,0.00,0.00,VWS V14.01,2013-07-22 01:57:00,
2013-07-21 21:00:00,91.0,72.1,29.80,SSE,165,5.0,11.0,54,0.00,,CLR,0.00,53.00,VWS V15.00,2013-07-22 02:00:00,
2013-07-21 21:02:00,88.6,72.4,29.81,SSW,213,11.0,11.0,59,0.00,,BKN300,0.00,0.00,VWS V14.01,2013-07-22 02:02:00,
2013-07-21 21:07:00,88.0,72.4,29.81,SSW,198,14.0,19.0,60,0.00,,BKN300,0.00,0.00,VWS V14.01,2013-07-22 02:07:00,
2013-07-21 21:10:00,90.5,73.2,29.80,South,183,4.0,10.0,57,0.00,,CLR,0.00,30.00,VWS V15.00,2013-07-22 02:10:00,
2013-07-21 21:12:00,87.8,73.2,29.81,SSW,207,10.0,11.0,62,0.00,,BKN300,0.00,0.00,VWS V14.01,2013-07-22 02:12:00,
2013-07-21 21:17:00,87.4,72.3,29.82,SSW,212,9.0,20.0,61,0.00,,BKN300,0.00,0.00,VWS V14.01,2013-07-22 02:17:00,
2013-07-21 21:20:00,90.1,71.8,29.80,South,180,5.0,10.0,55,0.00,,CLR,0.00,16.00,VWS V15.00,2013-07-22 02:20:00,
2013-07-21 21:22:00,87.2,72.6,29.82,South,188,14.0,14.0,62,0.00,,BKN300,0.00,0.00,VWS V14.01,2013-07-22 02:22:00,
2013-07-21 21:27:00,86.7,73.1,29.82,SSW,196,13.0,15.0,64,0.00,,BKN300,0.00,0.00,VWS V14.01,2013-07-22 02:27:00,
2013-07-21 21:30:00,89.9,73.2,29.80,SSW,192,5.0,9.0,58,0.00,,CLR,0.00,9.00,VWS V15.00,2013-07-22 02:30:00,
2013-07-21 21:32:00,86.5,72.9,29.83,SSW,204,9.0,14.0,64,0.00,,BKN300,0.00,0.00,VWS V14.01,2013-07-22 02:32:00,
2013-07-21 21:37:00,86.3,73.2,29.83,SSW,202,9.0,17.0,65,0.00,,BKN300,0.00,0.00,VWS V14.01,2013-07-22 02:37:00,
2013-07-21 21:40:00,89.3,73.1,29.80,SSW,197,10.0,10.0,59,0.00,,CLR,0.00,0.00,VWS V15.00,2013-07-22 02:40:00,
2013-07-21 21:42:00,86.1,73.0,29.83,SSW,192,13.0,13.0,65,0.00,,BKN300,0.00,0.00,VWS V14.01,2013-07-22 02:42:00,
2013-07-21 21:47:00,85.9,73.2,29.83,SSW,202,7.0,15.0,66,0.00,,BKN300,0.00,0.00,VWS V14.01,2013-07-22 02:47:00,
2013-07-21 21:50:00,89.0,72.8,29.81,SSW,195,6.0,10.0,59,0.00,,CLR,0.00,0.00,VWS V15.00,2013-07-22 02:50:00,
2013-07-21 21:52:00,85.7,73.9,29.83,SSW,192,12.0,12.0,68,0.00,,BKN300,0.00,0.00,VWS V14.01,2013-07-22 02:52:00,
2013-07-21 21:57:00,85.5,73.3,29.83,SSW,203,11.0,15.0,67,0.00,,BKN300,0.00,0.00,VWS V14.01,2013-07-22 02:57:00,
2013-07-21 22:00:00,88.6,72.4,29.81,SSW,200,11.0,21.0,59,0.00,,CLR,0.00,0.00,VWS V15.00,2013-07-22 03:00:00,
2013-07-21 22:02:00,85.3,73.6,29.83,SSW,204,6.0,9.0,68,0.00,,BKN300,0.00,0.00,VWS V14.01,2013-07-22 03:02:00,
2013-07-21 22:07:00,85.1,73.4,29.83,SSW,202,8.0,15.0,68,0.00,,BKN300,0.00,0.00,VWS V14.01,2013-07-22 03:07:00,
2013-07-21 22:10:00,87.8,72.7,29.81,South,186,9.0,19.0,61,0.00,,CLR,0.00,0.00,VWS V15.00,2013-07-22 03:10:00,
2013-07-21 22:12:00,85.1,74.2,29.83,South,184,5.0,12.0,70,0.00,,BKN300,0.00,0.00,VWS V14.01,2013-07-22 03:12:00,
2013-07-21 22:17:00,84.9,74.0,29.83,SSW,203,9.0,12.0,70,0.00,,BKN300,0.00,0.00,VWS V14.01,2013-07-22 03:17:00,
2013-07-21 22:20:00,87.2,72.6,29.82,SSW,207,11.0,20.0,62,0.00,,CLR,0.00,0.00,VWS V15.00,2013-07-22 03:20:00,
2013-07-21 22:22:00,84.7,73.8,29.83,South,188,5.0,8.0,70,0.00,,BKN300,0.00,0.00,VWS V14.01,2013-07-22 03:22:00,
2013-07-21 22:27:00,84.5,73.7,29.83,South,175,7.0,14.0,70,0.00,,BKN300,0.00,0.00,VWS V14.01,2013-07-22 03:27:00,
2013-07-21 22:30:00,86.5,72.9,29.83,SSW,205,14.0,15.0,64,0.00,,CLR,0.00,0.00,VWS V15.00,2013-07-22 03:30:00,
2013-07-21 22:32:00,84.5,74.1,29.84,South,184,6.0,10.0,71,0.00,,BKN300,0.00,0.00,VWS V14.01,2013-07-22 03:32:00,
2013-07-21 22:37:00,84.3,73.9,29.84,South,178,12.0,13.0,71,0.00,,SCT300,0.00,0.00,VWS V14.01,2013-07-22 03:37:00,
2013-07-21 22:40:00,86.1,73.0,29.83,South,174,9.0,17.0,65,0.00,,CLR,0.00,0.00,VWS V15.00,2013-07-22 03:40:00,
2013-07-21 22:42:00,84.1,74.1,29.84,South,179,9.0,13.0,72,0.00,,SCT300,0.00,0.00,VWS V14.01,2013-07-22 03:42:00,
2013-07-21 22:47:00,84.0,74.0,29.84,South,190,10.0,14.0,72,0.00,,SCT300,0.00,0.00,VWS V14.01,2013-07-22 03:47:00,
2013-07-21 22:50:00,85.7,73.5,29.83,South,189,12.0,15.0,67,0.00,,CLR,0.00,0.00,VWS V15.00,2013-07-22 03:50:00,
2013-07-21 22:52:00,83.8,73.8,29.84,SSE,166,6.0,10.0,72,0.00,,SCT300,0.00,0.00,VWS V14.01,2013-07-22 03:52:00,
2013-07-21 22:57:00,83.8,74.2,29.84,SSW,209,7.0,13.0,73,0.00,,SCT300,0.00,0.00,VWS V14.01,2013-07-22 03:57:00,
2013-07-21 23:00:00,85.3,73.6,29.83,SSW,204,7.0,15.0,68,0.00,,CLR,0.00,0.00,VWS V15.00,2013-07-22 04:00:00,
2013-07-21 23:01:00,83.6,74.0,29.84,SSW,195,11.0,13.0,73,0.00,,SCT300,0.00,0.00,VWS V14.01,2013-07-22 04:01:00,
2013-07-21 23:06:00,83.4,73.8,29.85,SSW,199,13.0,13.0,73,0.00,,SCT300,0.00,0.00,VWS V14.01,2013-07-22 04:06:00,
2013-07-21 23:10:00,85.1,74.2,29.83,SSW,212,12.0,15.0,70,0.00,,CLR,0.00,0.00,VWS V15.00,2013-07-22 04:10:00,
2013-07-21 23:11:00,83.4,74.2,29.85,SSW,194,7.0,14.0,74,0.00,,SCT300,0.00,0.00,VWS V14.01,2013-07-22 04:11:00,
2013-07-21 23:16:00,83.2,73.7,29.85,SSW,200,10.0,15.0,73,0.00,,SCT300,0.00,0.00,VWS V14.01,2013-07-22 04:16:00,
2013-07-21 23:20:00,84.7,73.8,29.83,South,188,8.0,16.0,70,0.00,,CLR,0.00,0.00,VWS V15.00,2013-07-22 04:20:00,
2013-07-21 23:21:00,83.0,73.1,29.85,South,191,11.0,15.0,72,0.00,,SCT300,0.00,0.00,VWS V14.01,2013-07-22 04:21:00,
2013-07-21 23:26:00,82.8,72.9,29.85,South,180,11.0,15.0,72,0.00,,SCT300,0.00,0.00,VWS V14.01,2013-07-22 04:26:00,
2013-07-21 23:30:00,84.5,74.1,29.84,South,186,10.0,14.0,71,0.00,,CLR,0.00,0.00,VWS V15.00,2013-07-22 04:30:00,
2013-07-21 23:31:00,82.8,72.9,29.85,SSW,206,10.0,17.0,72,0.00,,SCT300,0.00,0.00,VWS V14.01,2013-07-22 04:31:00,
2013-07-21 23:36:00,82.8,72.9,29.85,SW,215,7.0,15.0,72,0.00,,FEW300,0.00,0.00,VWS V14.01,2013-07-22 04:36:00,
2013-07-21 23:40:00,84.1,74.1,29.84,SSE,165,10.0,16.0,72,0.00,,CLR,0.00,0.00,VWS V15.00,2013-07-22 04:40:00,
2013-07-21 23:41:00,82.6,73.1,29.85,South,188,10.0,15.0,73,0.00,,FEW300,0.00,0.00,VWS V14.01,2013-07-22 04:41:00,
2013-07-21 23:46:00,82.4,72.5,29.86,SW,222,10.0,15.0,72,0.00,,FEW300,0.00,0.00,VWS V14.01,2013-07-22 04:46:00,
2013-07-21 23:50:00,83.8,73.8,29.84,SSW,209,6.0,14.0,72,0.00,,CLR,0.00,0.00,VWS V15.00,2013-07-22 04:50:00,
2013-07-21 23:51:00,82.4,72.5,29.86,SW,221,12.0,15.0,72,0.00,,FEW300,0.00,0.00,VWS V14.01,2013-07-22 04:51:00,
2013-07-21 23:56:00,82.2,72.3,29.86,SSW,208,11.0,20.0,72,0.00,,FEW300,0.00,0.00,VWS V14.01,2013-07-22 04:56:00,